Location: Agendoh
(31.0664°N, 8.9343°W)
Time: 09:01:03
(UTC+00:00)

Meteor 2-6 Rocket - Pass Details

Date: 06 December 2021
Orbit: 805 x 915 km, 81.3° (Epoch: 24 January)

Event Time Altitude Azimuth Distance (km) Brightness Sun altitude
Exits shadow 05:48:07 - 353° (N) 3,336 7.1 -19.3°
Rises 05:48:09 0° 353° (N) 3,327 7.1 -19.3°
Reaches altitude 10° 05:50:32 10° 354° (N) 2,390 6.3 -18.8°
Maximum altitude 05:55:55 84° 82° (E) 815 4.1 -17.7°
Drops below altitude 10° 06:01:19 10° 171° (S) 2,391 6.9 -16.6°
Sets 06:03:42 0° 172° (S) 3,330 7.6 -16.1°
